W4BJB-13 Weather Reports


time (UTC)temp
F
wind
direction
speed
knots
gust
knots
rain 1hr
in
rain 24hr
in
rain mn
in
humidity
%
barometer
mb
20260510065004 56 330 0.0 0.0 0.00 0.00 0.00 93 986.1
20260510064005 56 207 0.0 0.0 0.00 0.00 0.00 93 986.2
20260510063504 57 207 0.0 0.0 0.00 0.00 0.00 92 986.2
20260510062504 57 200 0.0 0.9 0.00 0.00 0.00 92 986.2
20260510062005 57 335 0.0 0.9 0.00 0.00 0.00 92 986.2
20260510061505 57 305 0.0 0.0 0.00 0.00 0.00 92 986.2
20260510061004 57 289 0.0 0.0 0.00 0.00 0.00 92 986.1
20260510060005 57 61 0.0 0.9 0.00 0.00 0.00 91 986.1
20260510055004 56 221 0.0 0.9 0.00 0.00 0.00 91 986.1
20260510054504 56 132 0.0 0.9 0.00 0.00 0.00 91 986.0
20260510054004 56 122 0.0 0.9 0.00 0.00 0.00 91 986.0
20260510053504 56 19 0.0 0.9 0.00 0.00 0.00 91 986.1
20260510052504 56 135 0.0 0.9 0.00 0.00 0.00 90 986.1
20260510052005 56 128 0.0 0.9 0.00 0.00 0.00 90 986.1
20260510051504 56 124 0.0 0.9 0.00 0.00 0.00 90 986.1
20260510051004 56 127 0.0 0.9 0.00 0.00 0.00 90 986.2
20260510050504 56 140 0.0 0.9 0.00 0.00 0.00 90 986.2
20260510045504 57 130 0.0 0.9 0.00 0.00 0.00 89 986.1
20260510045005 57 161 0.0 0.9 0.00 0.00 0.00 89 986.1
20260510044504 57 149 0.0 0.9 0.00 0.00 0.00 89 986.0
20260510044004 57 168 0.0 0.0 0.00 0.00 0.00 89 986.0
20260510043504 57 168 0.0 0.0 0.00 0.00 0.00 89 986.0
20260510042504 58 303 0.0 0.0 0.00 0.00 0.00 88 986.0
20260510042004 58 151 0.0 0.9 0.00 0.00 0.00 88 986.0
20260510041505 58 148 0.0 0.9 0.00 0.00 0.00 88 986.0
20260510041004 58 207 0.0 0.9 0.00 0.00 0.00 88 986.0
20260510040504 58 199 0.0 0.0 0.00 0.00 0.00 87 986.0
20260510040004 58 231 0.0 0.9 0.00 0.00 0.00 87 986.0
20260510035504 58 245 0.0 0.9 0.00 0.00 0.00 87 986.0
20260510035004 58 155 0.0 0.9 0.00 0.00 0.00 86 986.0
20260510034503 59 304 0.0 0.9 0.00 0.00 0.00 86 985.9
20260510034004 59 272 0.0 0.9 0.00 0.00 0.00 86 986.0
20260510033505 59 235 0.0 0.9 0.00 0.00 0.00 86 986.0
20260510031505 59 144 0.0 1.7 0.00 0.00 0.00 85 985.9
20260510030504 60 220 0.0 1.7 0.00 0.00 0.00 84 985.9
20260510024505 60 297 0.0 0.9 0.00 0.00 0.00 83 985.7
20260510024004 61 242 0.0 0.9 0.00 0.00 0.00 83 985.6
20260510023505 61 165 0.0 0.9 0.00 0.00 0.00 82 985.5
20260510023005 61 137 0.0 0.9 0.00 0.00 0.00 82 985.5
20260510022505 61 161 0.0 0.0 0.00 0.00 0.00 82 985.4
20260510022005 62 7 0.0 0.9 0.00 0.00 0.00 81 985.3
20260510021506 62 280 0.0 0.9 0.00 0.00 0.00 81 985.3
20260510021006 62 154 0.0 0.0 0.00 0.00 0.00 81 985.2
20260510020005 62 228 0.0 0.9 0.00 0.00 0.00 80 985.1
20260510015505 63 32 0.0 0.9 0.00 0.00 0.00 80 985.0
20260510015004 63 224 0.0 0.9 0.00 0.00 0.00 80 984.9
20260510013504 65 122 0.0 0.9 0.00 0.00 0.00 78 984.7
20260510012005 66 339 0.9 1.7 0.00 0.00 0.00 76 984.6
20260510011005 67 344 0.9 2.6 0.00 0.00 0.00 76 984.4
20260510010505 67 319 0.9 1.7 0.00 0.00 0.00 75 984.4
20260510004505 70 282 0.0 0.9 0.00 0.00 0.00 71 984.1
20260510004005 70 297 0.0 0.9 0.00 0.00 0.00 69 984.0
20260510003504 71 299 0.0 0.9 0.00 0.00 0.00 68 984.0
20260510002504 72 338 0.9 0.9 0.00 0.00 0.00 64 984.0
20260510002004 72 1 0.0 0.9 0.00 0.00 0.00 64 983.9
20260510001004 73 326 0.9 1.7 0.00 0.00 0.00 61 983.9
20260510000505 73 357 0.0 0.9 0.00 0.00 0.00 61 984.0
20260510000005 74 0 0.9 0.9 0.00 0.00 0.00 59 983.9
20260509235504 74 2 0.0 0.9 0.00 0.00 0.00 57 983.9
20260509235005 75 348 0.0 0.9 0.00 0.00 0.00 57 984.0
20260509234505 76 26 0.9 0.9 0.00 0.00 0.00 57 983.9
20260509234005 76 26 0.0 1.7 0.00 0.00 0.00 57 983.8
20260509233506 76 306 0.9 1.7 0.00 0.00 0.00 50 983.7
20260509232004 76 325 0.9 1.7 0.00 0.00 0.00 49 983.7
20260509231504 76 293 0.9 4.3 0.00 0.00 0.00 50 983.6
20260509230506 77 324 0.9 2.6 0.00 0.00 0.00 52 983.6
20260509230005 77 305 0.9 1.7 0.00 0.00 0.00 48 983.5
20260509225505 77 261 0.0 2.6 0.00 0.00 0.00 48 983.5
20260509225005 77 232 0.9 2.6 0.00 0.00 0.00 47 983.5
20260509224505 77 344 0.9 2.6 0.00 0.00 0.00 49 983.5
20260509224005 77 341 0.0 0.9 0.00 0.00 0.00 57 983.4
20260509223005 77 220 0.9 4.3 0.00 0.00 0.00 48 983.3
20260509222505 77 301 0.9 5.2 0.00 0.00 0.00 49 983.2
20260509221504 77 344 0.9 2.6 0.00 0.00 0.00 47 983.2
20260509221005 77 321 1.7 2.6 0.00 0.00 0.00 46 983.3
20260509220504 77 342 0.9 2.6 0.00 0.00 0.00 47 983.3
20260509220004 77 288 0.9 1.7 0.00 0.00 0.00 48 983.4
20260509215505 77 291 1.7 4.3 0.00 0.00 0.00 46 983.3
20260509215005 78 329 1.7 4.3 0.00 0.00 0.00 49 983.3
20260509214505 77 28 0.9 1.7 0.00 0.00 0.00 53 983.3
20260509213505 77 311 1.7 4.3 0.00 0.00 0.00 49 983.4
20260509212505 77 276 0.9 2.6 0.00 0.00 0.00 51 983.3
20260509212004 77 172 1.7 2.6 0.00 0.00 0.00 50 983.4
20260509211504 76 330 0.9 2.6 0.00 0.00 0.00 52 983.3
20260509211005 76 300 0.9 4.3 0.00 0.00 0.00 57 983.3
20260509210504 76 258 0.0 0.9 0.00 0.00 0.00 58 983.3
20260509205005 77 215 0.9 1.7 0.00 0.00 0.00 55 983.4
20260509204505 78 266 0.9 2.6 0.00 0.00 0.00 55 983.4
20260509203505 78 220 0.9 2.6 0.00 0.00 0.00 56 983.4
20260509203004 78 217 0.9 2.6 0.00 0.00 0.00 57 983.4
20260509202505 78 243 1.7 2.6 0.00 0.00 0.00 56 983.4
20260509202005 78 243 0.9 2.6 0.00 0.00 0.00 56 983.3
20260509201004 78 244 0.9 2.6 0.00 0.00 0.00 51 983.2
20260509200505 79 184 2.6 6.1 0.00 0.00 0.00 51 983.4
20260509200004 79 289 0.9 5.2 0.00 0.00 0.00 51 983.4
20260509195504 79 334 0.9 2.6 0.00 0.00 0.00 54 983.5
20260509195004 78 276 0.9 2.6 0.00 0.00 0.00 54 983.6
20260509194504 78 187 1.7 4.3 0.00 0.00 0.00 52 983.5
20260509193504 78 195 1.7 2.6 0.00 0.00 0.00 54 983.7
20260509193004 78 306 1.7 2.6 0.00 0.00 0.00 54 983.7
20260509192504 77 242 1.7 2.6 0.00 0.00 0.00 56 983.8
20260509192003 76 285 0.9 2.6 0.00 0.00 0.00 60 983.9
20260509191504 76 302 1.7 4.3 0.00 0.00 0.00 60 984.0
20260509191004 75 276 2.6 2.6 0.00 0.00 0.00 58 984.0
20260509190504 75 214 1.7 4.3 0.00 0.00 0.00 60 984.0
20260509185504 74 169 0.9 2.6 0.00 0.00 0.00 63 984.1
20260509185004 74 290 2.6 5.2 0.00 0.00 0.00 64 984.0
20260509184503 74 185 0.9 2.6 0.00 0.00 0.00 66 984.0
20260509184003 73 313 0.9 2.6 0.00 0.00 0.00 67 984.0
20260509183504 73 193 0.9 1.7 0.00 0.00 0.00 68 984.1
20260509183005 72 10 0.0 1.7 0.00 0.00 0.00 68 984.2
20260509182504 73 209 0.9 2.6 0.00 0.00 0.00 67 984.2
20260509181505 73 332 0.9 4.3 0.00 0.00 0.00 70 984.0
20260509181006 73 207 0.0 2.6 0.00 0.00 0.00 69 984.0
20260509180505 73 286 1.7 4.3 0.00 0.00 0.00 68 983.9
20260509180006 73 232 1.7 2.6 0.00 0.00 0.00 69 983.9
20260509175004 73 49 0.9 2.6 0.00 0.00 0.00 68 984.0
20260509174504 72 274 0.9 2.6 0.00 0.00 0.00 67 984.0
20260509173505 71 206 1.7 5.2 0.00 0.00 0.00 69 983.8
20260509173005 71 286 0.9 4.3 0.00 0.00 0.00 70 983.8
20260509171505 70 3 0.9 2.6 0.00 0.00 0.00 72 984.1
20260509171005 71 226 1.7 4.3 0.00 0.00 0.00 74 984.0
20260509170504 70 256 0.9 1.7 0.00 0.00 0.00 73 984.1
20260509170004 70 250 0.9 2.6 0.00 0.00 0.00 74 984.2
20260509165505 70 318 1.7 2.6 0.00 0.00 0.00 74 984.2
20260509165005 69 227 0.9 2.6 0.00 0.00 0.00 75 984.2
20260509164505 69 131 1.7 2.6 0.00 0.00 0.00 76 984.2
20260509164005 69 172 0.9 2.6 0.00 0.00 0.00 77 984.2
20260509163505 69 91 0.0 0.9 0.00 0.00 0.00 75 984.2
20260509163005 69 124 0.9 1.7 0.00 0.00 0.00 75 984.2
20260509162505 69 287 0.9 1.7 0.00 0.00 0.00 75 984.2
20260509161505 69 20 0.0 2.6 0.00 0.00 0.00 76 984.2
20260509161005 69 281 0.9 1.7 0.00 0.00 0.00 76 984.2
20260509160504 68 175 0.9 4.3 0.00 0.00 0.00 76 984.1
20260509160005 68 289 0.0 1.7 0.00 0.00 0.00 78 984.1
20260509155506 68 186 0.9 1.7 0.00 0.00 0.00 78 984.1
20260509154504 67 327 0.9 5.2 0.00 0.00 0.00 79 984.1
20260509154004 66 303 0.9 2.6 0.00 0.00 0.00 81 984.1
20260509153505 66 262 0.9 1.7 0.00 0.00 0.00 81 984.2
20260509153005 66 310 0.9 2.6 0.00 0.00 0.00 81 984.2
20260509152504 65 166 0.0 2.6 0.00 0.00 0.00 82 984.1
20260509151505 65 326 0.9 2.6 0.00 0.00 0.00 83 984.0
20260509151005 64 20 0.9 2.6 0.00 0.00 0.00 84 984.1
20260509150506 64 67 0.9 2.6 0.00 0.00 0.00 84 984.0
20260509145505 64 342 1.7 2.6 0.00 0.00 0.00 84 984.0
20260509145006 64 274 0.9 2.6 0.00 0.00 0.00 85 984.0
20260509144504 63 329 1.7 2.6 0.00 0.00 0.00 85 984.0
20260509144005 63 182 0.9 4.3 0.00 0.00 0.00 86 984.0
20260509143504 63 78 0.9 2.6 0.00 0.00 0.00 86 984.0
20260509143004 62 348 0.9 1.7 0.00 0.00 0.00 87 983.9
20260509142504 62 256 1.7 2.6 0.00 0.00 0.00 87 983.8
20260509142005 62 258 0.9 2.6 0.00 0.00 0.00 87 983.7
20260509141505 62 130 0.0 2.6 0.00 0.00 0.00 88 983.7
20260509140505 61 226 1.7 2.6 0.00 0.00 0.00 88 983.8
20260509140006 61 290 0.9 2.6 0.00 0.00 0.00 88 983.8
20260509135505 61 294 0.9 4.3 0.00 0.00 0.00 89 983.9
20260509135005 60 188 0.0 1.7 0.00 0.00 0.00 89 983.9
20260509134504 60 211 0.9 1.7 0.00 0.00 0.00 90 983.9
20260509134005 60 336 0.9 1.7 0.00 0.00 0.00 91 983.9
20260509133505 59 183 0.9 1.7 0.00 0.00 0.00 91 983.9
20260509132504 58 136 0.9 2.6 0.00 0.00 0.00 92 983.9
20260509132004 58 174 0.9 2.6 0.00 0.00 0.00 93 983.9
20260509131505 58 224 0.9 2.6 0.00 0.00 0.00 93 983.9
20260509131004 57 187 0.9 2.6 0.00 0.00 0.00 94 983.9
20260509130504 57 168 0.9 2.6 0.00 0.00 0.00 95 984.0
20260509130005 57 153 0.9 2.6 0.00 0.00 0.00 96 983.9
20260509125505 56 170 1.7 2.6 0.00 0.00 0.00 96 983.8
20260509125004 55 166 0.0 2.6 0.00 0.00 0.00 97 983.9
20260509124504 55 138 0.9 1.7 0.00 0.00 0.00 97 983.9
20260509124004 54 221 0.0 1.7 0.00 0.00 0.00 97 983.9
20260509122504 52 125 0.0 0.9 0.00 0.00 0.00 96 983.7
20260509122005 52 120 0.0 0.9 0.00 0.00 0.00 96 983.6
20260509121504 52 89 0.0 0.9 0.00 0.00 0.00 95 983.7
20260509120504 52 137 0.0 0.9 0.00 0.00 0.00 95 983.7
20260509120005 52 165 0.0 0.9 0.00 0.00 0.00 95 983.7
20260509115504 51 103 0.0 0.9 0.00 0.00 0.00 95 983.5
20260509115004 51 116 0.0 0.9 0.00 0.00 0.00 95 983.4
20260509114004 51 117 0.0 0.9 0.00 0.00 0.00 95 983.3
20260509113505 51 138 0.0 0.9 0.00 0.00 0.00 95 983.2
20260509112504 51 80 0.9 0.9 0.00 0.00 0.00 95 983.1
20260509111504 51 102 0.0 0.9 0.00 0.00 0.00 95 983.2
20260509111004 51 121 0.0 0.9 0.00 0.00 0.00 94 983.0
20260509110504 51 101 0.0 0.9 0.00 0.00 0.00 94 982.9
20260509110004 51 122 0.0 0.9 0.00 0.00 0.00 94 982.8
20260509104505 51 55 0.0 0.0 0.00 0.00 0.00 94 982.8
20260509104005 51 55 0.0 0.9 0.00 0.00 0.00 94 982.7
20260509103503 51 53 0.0 0.9 0.00 0.00 0.00 94 982.8
20260509103004 51 92 0.0 0.9 0.00 0.00 0.00 93 982.9
20260509102504 52 93 0.0 0.9 0.00 0.00 0.00 93 982.9
20260509102004 52 92 0.0 0.0 0.00 0.00 0.00 93 982.9
20260509101504 52 87 0.0 0.9 0.00 0.00 0.00 93 982.9
20260509101003 52 98 0.0 0.9 0.00 0.00 0.00 93 983.0
20260509100504 52 106 0.0 0.9 0.00 0.00 0.00 93 983.1
20260509100004 52 100 0.0 0.9 0.00 0.00 0.00 93 983.2
20260509095504 52 104 0.0 0.9 0.00 0.00 0.00 93 983.3
20260509095004 52 198 0.0 0.9 0.00 0.00 0.00 93 983.4
20260509094504 52 143 0.0 0.0 0.00 0.00 0.00 93 983.4
20260509094004 52 167 0.0 0.0 0.00 0.00 0.00 93 983.5
20260509093504 53 160 0.0 0.0 0.00 0.00 0.00 93 983.6
20260509092505 53 82 0.0 1.7 0.00 0.00 0.00 93 983.3
20260509092005 53 80 0.0 0.9 0.00 0.00 0.00 93 983.5
20260509091504 53 80 0.0 0.0 0.00 0.00 0.00 92 983.4
20260509091005 53 80 0.0 0.9 0.00 0.00 0.00 92 983.1
20260509090505 53 87 0.0 0.9 0.00 0.00 0.00 92 983.2
20260509090005 53 94 0.0 0.9 0.00 0.00 0.00 92 983.4
20260509085005 53 72 0.0 0.9 0.00 0.00 0.00 92 983.3
20260509084504 53 46 0.0 0.9 0.00 0.00 0.00 92 983.3
20260509084006 53 152 0.0 0.9 0.00 0.00 0.00 92 983.3
20260509083505 53 111 0.0 0.9 0.00 0.00 0.00 92 983.2
20260509083004 53 98 0.0 0.0 0.00 0.00 0.00 92 983.1
20260509082504 53 98 0.0 0.9 0.00 0.00 0.00 92 982.9
20260509082005 53 84 0.0 0.9 0.00 0.00 0.00 92 982.9
20260509081005 53 106 0.0 0.0 0.00 0.00 0.00 91 982.8
20260509080505 53 106 0.0 0.9 0.00 0.00 0.00 91 982.9
20260509080005 53 73 0.0 0.9 0.00 0.00 0.00 91 982.6
20260509075505 53 98 0.0 0.9 0.00 0.00 0.00 91 982.6
20260509075005 53 100 0.0 0.9 0.00 0.00 0.00 91 982.8
20260509074505 53 78 0.0 0.9 0.00 0.00 0.00 90 982.9
20260509074005 53 86 0.0 0.0 0.00 0.00 0.00 90 982.9
20260509073505 53 90 0.0 0.9 0.00 0.00 0.00 90 983.0
20260509073005 53 113 0.0 0.9 0.00 0.00 0.00 90 983.1
20260509072004 53 80 0.0 0.9 0.00 0.00 0.00 90 983.0
20260509071505 53 110 0.0 0.9 0.00 0.00 0.00 90 983.2
20260509071005 54 147 0.0 0.9 0.00 0.00 0.00 90 983.5
20260509070505 54 163 0.0 0.0 0.00 0.00 0.00 89 983.5